COSMOS 1823 DEB, 18910

Orbit data source: Space-Track

COSMOS 1823 DEB, 18910 is space debris in LEO originally from a launch on Fri, 20 Feb 1987 UTC launched from the Plesetsk Missile And Space Complex (PKMTR). Debris objects in space refer to the collection of defunct objects orbiting the Earth. Examples of debris include non-operational satellites, rocket bodies, and fragments generated from explosions, collisions, or faulty payload assembly.

Loading next visibility...
Identifier
18910, 1987-020AU
Orbit
LEO
Country
Flag of CISCIS
Related business
Manufacturer
Unknown
Mission
Spacecraft
Bus & Motor
Unknown
Mass
Unknown
Launch date (UTC)
1987-02-20 (39 years ago)
Launch vehicle
Unknown
Launch site
Plesetsk Missile And Space Complex (PKMTR)
Object type
Payload
Rocket body
Debris
Shape & HBR
Unknown shape, 0.2 m
Radar Cross Section
Medium (>0.1 m² and <1 m²)

Expand to show TLE details & history
Last TLE update: 2 days ago

TLE from 2 days ago
0 COSMOS 1823 DEB
1 18910U 87020AU  26171.35898766  .00000132  00000-0  99678-3 0  9993
2 18910  73.6770 301.8514 0013043 312.7183  76.3415 12.48732758751218
Epoch: 2026-06-20T08:36Z
TLE epoch observation values (Epoch: 2026-06-20T08:36:56.533Z)
Latitude
27.96699°
Longitude
-87.05747°
Altitude
1,470.328 km
Speed
7.131 km/s
True Right ascension
20h 43m 00s
True Declination
27° 50' 16"
Sunlit
Object was in daylight at epoch
Visualization orbit readout
Latitude
Unknown
Longitude
Unknown
Altitude
Unknown
Speed
Unknown
Apparent Right ascension
Unknown
Apparent Declination
Unknown
Sunlit
N/A
Visualization observer readout
Local Sidereal Time
23:08:11
Azimuth
Unknown
Elevation
Unknown
Doppler factor
Unknown
Orbital elements
Apogee altitude
1,477.897 km
Perigee altitude
1,457.431 km
Semi-major axis
7,845.801 km
Eccentricity
0.0013
Inclination
73.677°
RAAN
301.8514°
Arg. of periapsis
312.7183°
True anomaly
76.48679°
Mean anomaly
76.3415°
Eccentric anomaly
76.41414°
Mean motion
3.12311 °/min
Orbital period
115.27 mins
BSTAR
0.00099678
Loading maneuver chart data...
Computing Atmospheric mass density...

Documentation

Showing up to 5 results
|